Boone, NC

10:23 AM EDT on June 29, 2017 (GMT -0400)
Boone

Weather History for KTNB - May, 2014

Change the Weather History Date:

Tuesday, May 20, 2014

  Actual Average (KGEV) Record (KGEV)
Temperature  
Mean Temperature 57 °F -  
Max Temperature 71 °F 72 °F 84 °F (1970)
Min Temperature 43 °F 49 °F 33 °F (2002)
Degree Days  
Heating Degree Days 8    
Growing Degree Days 7 (Base 50)    
Moisture  
Dew Point 49 °F    
Average Humidity 74    
Maximum Humidity 100    
Minimum Humidity 41    
Precipitation  
Precipitation 0.00 in - - ()
Sea Level Pressure  
Sea Level Pressure 30.25 in    
Wind  
Wind Speed 3 mph (WSW)    
Max Wind Speed 15 mph    
Max Gust Speed 21 mph    
Visibility 10 miles    
Events      
Averages and records for this station are not official NWS values.
T = Trace of Precipitation, MM = Missing Value Source: NWS Daily Summary

Daily Weather History Graph

Daily Weather History Graph

Search for Another Location

Airport or City:

Trip Planner

Search our weather history database for the weather conditions in past years. The results will help you decide how hot, cold, wet, or windy it might be!

Date:

Astronomy

May. 20, 2014 Rise Set
Actual Time 6:16 AM EDT 8:30 PM EDT
Civil Twilight 5:47 AM EDT 8:59 PM EDT
Nautical Twilight 5:12 AM EDT 9:34 PM EDT
Astronomical Twilight 4:33 AM EDT 10:13 PM EDT
Moon 1:03 AM EDT (5/20) 12:17 PM EDT (5/20)
Length of Visible Light 15h 11m
Length of Day
14h 13m
Waning Gibbous, 60% of the Moon is Illuminated
May 20
Waning Gibbous
May 21
Last Quarter
May 28
New
Jun 5
First Quarter
Jun 13
Full

Hourly Weather History & Observations

Time (EDT) Temp. Dew Point Humidity Pressure Visibility Wind Dir Wind Speed Gust Speed Precip Events Conditions
12:15 AM 49.1 °F 43.7 °F 82% 30.28 in 10.0 mi Calm Calm - N/A   Clear
12:35 AM 48.6 °F 43.7 °F 83% 30.27 in 10.0 mi Calm Calm - N/A   Clear
12:55 AM 48.4 °F 43.5 °F 83% 30.27 in 10.0 mi Calm Calm - N/A   Clear
1:15 AM 48.4 °F 43.3 °F 83% 30.27 in 10.0 mi Calm Calm - N/A   Clear
1:35 AM 48.2 °F 43.2 °F 83% 30.27 in 10.0 mi Calm Calm - N/A   Clear
1:55 AM 47.3 °F 45.1 °F 92% 30.26 in 10.0 mi Calm Calm - N/A   Clear
2:15 AM 45.1 °F 43.7 °F 95% 30.26 in 10.0 mi Calm Calm - N/A   Clear
2:35 AM 45.0 °F 44.2 °F 97% 30.26 in 10.0 mi Calm Calm - N/A   Clear
2:55 AM 45.7 °F 44.4 °F 95% 30.26 in 10.0 mi Calm Calm - N/A   Clear
3:15 AM 45.3 °F 44.4 °F 97% 30.25 in 10.0 mi Calm Calm - N/A   Clear
3:35 AM 45.1 °F 43.7 °F 95% 30.26 in 10.0 mi Calm Calm - N/A   Clear
3:55 AM 45.5 °F 44.1 °F 95% 30.26 in 10.0 mi Calm Calm - N/A   Clear
4:15 AM 45.1 °F 43.9 °F 95% 30.26 in 10.0 mi Calm Calm - N/A   Clear
4:35 AM 44.1 °F 43.5 °F 98% 30.27 in 10.0 mi Calm Calm - N/A   Clear
4:55 AM 43.7 °F 43.0 °F 97% 30.26 in 10.0 mi Calm Calm - N/A   Clear
5:15 AM 43.9 °F 43.2 °F 97% 30.27 in 10.0 mi Calm Calm - N/A   Clear
5:35 AM 43.7 °F 43.2 °F 98% 30.28 in 10.0 mi Calm Calm - N/A   Clear
5:55 AM 44.1 °F 43.3 °F 97% 30.29 in 10.0 mi Calm Calm - N/A   Clear
6:15 AM 44.1 °F 43.9 °F 99% 30.29 in 7.0 mi Calm Calm - N/A   Clear
6:35 AM 43.5 °F 42.6 °F 97% 30.29 in 7.0 mi Calm Calm - N/A   Clear
6:55 AM 43.9 °F 43.9 °F 100% 30.30 in 5.0 mi Calm Calm - N/A   Clear
7:15 AM 45.5 °F 44.8 °F 97% 30.31 in 10.0 mi Calm Calm - N/A   Clear
7:35 AM 47.7 °F 46.9 °F 97% 30.32 in 10.0 mi Calm Calm - N/A   Clear
7:55 AM 49.8 °F 47.7 °F 92% 30.32 in 10.0 mi Calm Calm - N/A   Clear
8:15 AM 51.3 °F 48.2 °F 89% 30.31 in 10.0 mi Calm Calm - N/A   Clear
8:35 AM 54.9 °F 47.7 °F 77% 30.31 in 10.0 mi WSW 3.5 mph - N/A   Clear
8:55 AM 56.5 °F 45.0 °F 65% 30.31 in 10.0 mi WNW 8.1 mph - N/A   Clear
9:15 AM 57.2 °F 45.0 °F 64% 30.31 in 10.0 mi WNW 8.1 mph - N/A   Clear
9:35 AM 58.6 °F 45.5 °F 62% 30.31 in 10.0 mi WNW 8.1 mph - N/A   Clear
9:55 AM 59.7 °F 45.3 °F 59% 30.31 in 10.0 mi WNW 8.1 mph - N/A   Clear
10:15 AM 60.8 °F 45.3 °F 57% 30.31 in 10.0 mi NW 10.4 mph - N/A   Clear
10:35 AM 60.3 °F 45.3 °F 58% 30.30 in 10.0 mi NW 9.2 mph - N/A   Scattered Clouds
10:55 AM 62.2 °F 45.9 °F 55% 30.30 in 10.0 mi West 4.6 mph - N/A   Clear
11:15 AM 63.5 °F 46.6 °F 54% 30.29 in 10.0 mi NW 8.1 mph - N/A   Clear
11:35 AM 64.4 °F 47.8 °F 55% 30.29 in 10.0 mi WNW 9.2 mph 16.1 mph N/A   Clear
11:55 AM 65.3 °F 48.7 °F 55% 30.28 in 10.0 mi WNW 9.2 mph 17.3 mph N/A   Scattered Clouds
12:15 PM 66.6 °F 49.5 °F 54% 30.28 in 10.0 mi NNW 6.9 mph - N/A   Clear
12:35 PM 66.7 °F 49.5 °F 54% 30.27 in 10.0 mi NNW 10.4 mph 19.6 mph N/A   Clear
12:55 PM 67.1 °F 49.3 °F 53% 30.26 in 10.0 mi NW 8.1 mph - N/A   Scattered Clouds
1:15 PM 68.0 °F 49.5 °F 51% 30.26 in 10.0 mi North 8.1 mph 16.1 mph N/A   Scattered Clouds
1:35 PM 69.3 °F 48.4 °F 47% 30.25 in 10.0 mi NW 6.9 mph 20.7 mph N/A   Scattered Clouds
1:55 PM 71.2 °F 46.4 °F 41% 30.25 in 10.0 mi WNW 9.2 mph - N/A   Scattered Clouds
2:15 PM 69.6 °F 50.4 °F 50% 30.24 in 10.0 mi SSW 9.2 mph - N/A   Clear
2:35 PM 70.0 °F 48.4 °F 46% 30.24 in 10.0 mi South 6.9 mph - N/A   Scattered Clouds
2:55 PM 69.6 °F 52.3 °F 54% 30.23 in 10.0 mi SSE 4.6 mph - N/A   Scattered Clouds
3:15 PM 68.5 °F 51.1 °F 54% 30.23 in 10.0 mi SSW 13.8 mph 17.3 mph N/A   Scattered Clouds
3:35 PM 67.8 °F 51.8 °F 56% 30.22 in 10.0 mi SSW 9.2 mph - N/A   Scattered Clouds
3:55 PM 69.3 °F 52.3 °F 55% 30.22 in 10.0 mi SSW 9.2 mph - N/A   Scattered Clouds
4:15 PM 70.3 °F 52.2 °F 52% 30.21 in 10.0 mi SSW 11.5 mph 17.3 mph N/A   Clear
4:35 PM 69.1 °F 52.2 °F 55% 30.21 in 10.0 mi SSW 8.1 mph 18.4 mph N/A   Clear
4:55 PM 68.9 °F 52.9 °F 57% 30.21 in 10.0 mi SW 12.7 mph 17.3 mph N/A   Clear
5:15 PM 68.7 °F 53.2 °F 58% 30.20 in 10.0 mi SSW 15.0 mph 20.7 mph N/A   Clear
5:35 PM 68.5 °F 53.2 °F 58% 30.20 in 10.0 mi SSW 12.7 mph 17.3 mph N/A   Clear
5:55 PM 68.4 °F 53.2 °F 58% 30.19 in 10.0 mi SSW 11.5 mph 18.4 mph N/A   Clear
6:15 PM 68.2 °F 53.6 °F 60% 30.19 in 10.0 mi SSW 10.4 mph 17.3 mph N/A   Clear
6:35 PM 68.2 °F 53.6 °F 60% 30.19 in 10.0 mi SSW 6.9 mph - N/A   Clear
6:55 PM 67.6 °F 53.8 °F 61% 30.18 in 10.0 mi WSW 3.5 mph - N/A   Clear
7:15 PM 67.1 °F 54.1 °F 63% 30.18 in 10.0 mi South 3.5 mph - N/A   Clear
7:35 PM 66.9 °F 54.0 °F 63% 30.19 in 10.0 mi WSW 6.9 mph - N/A   Clear
7:55 PM 65.8 °F 54.0 °F 65% 30.19 in 10.0 mi SSW 4.6 mph - N/A   Clear
8:15 PM 64.9 °F 54.3 °F 68% 30.19 in 10.0 mi SSW 3.5 mph - N/A   Clear
8:35 PM 64.0 °F 54.5 °F 71% 30.19 in 10.0 mi SW 6.9 mph - N/A   Clear
8:55 PM 64.0 °F 54.3 °F 71% 30.19 in 10.0 mi SW 4.6 mph - N/A   Clear
9:15 PM 61.0 °F 54.5 °F 79% 30.19 in 10.0 mi SSW 5.8 mph - N/A   Clear
9:35 PM 59.2 °F 56.1 °F 90% 30.19 in 10.0 mi Calm Calm - N/A   Clear
9:55 PM 59.0 °F 56.3 °F 91% 30.20 in 10.0 mi Calm Calm - N/A   Clear
10:35 PM 57.9 °F 56.8 °F 96% 30.20 in 10.0 mi Calm Calm - N/A   Clear
10:55 PM 55.4 °F 55.4 °F 100% 30.20 in 5.0 mi Calm Calm - N/A   Clear
11:15 PM 57.0 °F 55.8 °F 96% 30.20 in 10.0 mi Calm Calm - N/A   Clear
11:35 PM 55.4 °F 54.0 °F 95% 30.20 in 7.0 mi Calm Calm - N/A   Clear
11:55 PM 54.1 °F 54.0 °F 99% 30.19 in 7.0 mi Calm Calm - N/A   Clear